Weather History for PAVA - October, 2013

Change the Weather History Date:

Thursday, October 17, 2013

  Actual Average (PACZ) Record (PACZ)
Temperature  
Mean Temperature 37 °F -  
Max Temperature 41 °F 33 °F 43 °F (2005)
Min Temperature 32 °F 25 °F 19 °F (2008)
Degree Days  
Heating Degree Days 28    
Moisture  
Dew Point 35 °F    
Average Humidity 92    
Maximum Humidity 100    
Minimum Humidity 75    
Precipitation  
Precipitation 0.00 in - - ()
Sea Level Pressure  
Sea Level Pressure 29.63 in    
Wind  
Wind Speed 9 mph (WSW)    
Max Wind Speed 13 mph    
Max Gust Speed -    
Visibility 10 miles    
Events Rain    
Averages and records for this station are not official NWS values.
T = Trace of Precipitation, MM = Missing Value Source: NWS Daily Summary

Daily Weather History Graph

Daily Weather History Graph

Search for Another Location

Airport or City:

Trip Planner

Search our weather history database for the weather conditions in past years. The results will help you decide how hot, cold, wet, or windy it might be!

Date:

Astronomy

Oct. 17, 2013 Rise Set
Actual Time 9:52 AM AKDT 7:41 PM AKDT
Civil Twilight 9:07 AM AKDT 8:26 PM AKDT
Nautical Twilight 8:16 AM AKDT 9:16 PM AKDT
Astronomical Twilight 7:25 AM AKDT 10:07 PM AKDT
Moon 7:09 PM AKDT (10/17) 8:24 AM AKDT (10/17)
Length of Visible Light 11h 19m
Length of Day
9h 49m
Waxing Gibbous, 98% of the Moon is Illuminated
Oct 17
Waxing Gibbous
Oct 18
Full
Oct 26
Last Quarter
Nov 3
New
Nov 9
First Quarter

Hourly Weather History & Observations

Time (AKDT) Temp. Windchill Dew Point Humidity Pressure Visibility Wind Dir Wind Speed Gust Speed Precip Events Conditions
12:32 AM 42.8 °F 36.6 °F 41.0 °F 93% 29.65 in 2.5 mi WSW 11.5 mph - 0.00 in   Overcast
12:49 AM 41.0 °F 34.7 °F 39.2 °F 93% 29.65 in 4.0 mi WSW 10.4 mph - 0.00 in Rain Light Rain
12:57 AM 41.0 °F 33.9 °F 39.9 °F 96% 29.66 in 9.0 mi West 12.7 mph - 0.00 in   Overcast
1:00 AM 41.0 °F 35.2 °F 39.2 °F 93% 29.65 in 7.0 mi WSW 9.2 mph - N/A   Overcast
1:20 AM 39.2 °F 33.6 °F 39.2 °F 100% 29.65 in 10.0 mi WSW 8.1 mph - N/A   Overcast
1:50 AM 39.2 °F 33.0 °F 39.2 °F 100% 29.66 in 8.0 mi WSW 9.2 mph - 0.00 in Rain Light Rain
1:54 AM 39.2 °F 34.2 °F 39.2 °F 100% 29.66 in 8.0 mi WSW 6.9 mph - 0.00 in   Overcast
1:57 AM 39.9 °F 35.1 °F 39.0 °F 97% 29.66 in 8.0 mi WSW 6.9 mph - 0.00 in   Overcast
2:02 AM 39.2 °F 33.6 °F 39.2 °F 100% 29.65 in 9.0 mi WSW 8.1 mph - N/A   Overcast
2:05 AM 39.2 °F 33.6 °F 39.2 °F 100% 29.65 in 9.0 mi WSW 8.1 mph - N/A   Overcast
2:13 AM 39.2 °F 33.0 °F 39.2 °F 100% 29.66 in 7.0 mi WSW 9.2 mph - N/A   Overcast
2:45 AM 39.2 °F 32.5 °F 39.2 °F 100% 29.66 in 10.0 mi West 10.4 mph - N/A   Overcast
2:57 AM 39.0 °F 31.8 °F 37.9 °F 96% 29.67 in 9.0 mi WSW 11.5 mph - N/A   Overcast
3:45 AM 39.2 °F 32.5 °F 37.4 °F 93% 29.67 in 10.0 mi SW 10.4 mph - N/A   Overcast
3:57 AM 37.9 °F 30.5 °F 37.0 °F 97% 29.67 in 10.0 mi WSW 11.5 mph - N/A   Overcast
4:57 AM 37.4 °F 30.3 °F 35.6 °F 93% 29.66 in 10.0 mi WSW 10.4 mph - N/A   Overcast
4:59 AM 37.0 °F 29.8 °F 36.0 °F 96% 29.67 in 10.0 mi WSW 10.4 mph - N/A   Overcast
5:02 AM 37.4 °F 29.8 °F 35.6 °F 93% 29.66 in 10.0 mi WSW 11.5 mph - N/A   Overcast
5:22 AM 37.4 °F 31.4 °F 35.6 °F 93% 29.66 in 10.0 mi SW 8.1 mph - N/A   Overcast
5:28 AM 37.4 °F 31.4 °F 35.6 °F 93% 29.66 in 10.0 mi SW 8.1 mph - N/A   Overcast
5:35 AM 37.4 °F 30.8 °F 35.6 °F 93% 29.66 in 10.0 mi SW 9.2 mph - N/A   Overcast
5:51 AM 37.4 °F 29.8 °F 35.6 °F 93% 29.65 in 10.0 mi WSW 11.5 mph - N/A   Overcast
5:57 AM 37.4 °F 31.4 °F 35.6 °F 93% 29.66 in 10.0 mi SW 8.1 mph - N/A   Overcast
6:42 AM 37.0 °F 30.4 °F 35.1 °F 93% 29.66 in 10.0 mi WSW 9.2 mph - N/A   Overcast
6:57 AM 37.0 °F 31.6 °F 35.1 °F 93% 29.66 in 10.0 mi SW 6.9 mph - N/A   Overcast
7:06 AM 37.4 °F 31.4 °F 35.6 °F 93% 29.65 in 10.0 mi SW 8.1 mph - N/A   Overcast
7:16 AM 37.4 °F 32.1 °F 35.6 °F 93% 29.65 in 10.0 mi SW 6.9 mph - N/A   Overcast
7:46 AM 35.6 °F 29.9 °F 33.8 °F 93% 29.65 in 10.0 mi SSW 6.9 mph - N/A   Overcast
7:57 AM 36.0 °F 29.0 °F 34.0 °F 93% 29.66 in 10.0 mi SW 9.2 mph - N/A   Overcast
8:05 AM 35.6 °F 28.0 °F 33.8 °F 93% 29.65 in 10.0 mi WSW 10.4 mph - N/A   Overcast
8:57 AM 36.0 °F 29.6 °F 33.1 °F 89% 29.66 in 10.0 mi WSW 8.1 mph - N/A   Mostly Cloudy
9:36 AM 35.6 °F 29.2 °F 33.8 °F 93% 29.65 in 10.0 mi SW 8.1 mph - N/A   Mostly Cloudy
9:57 AM 34.0 °F 27.2 °F 32.0 °F 92% 29.66 in 10.0 mi SW 8.1 mph - N/A   Mostly Cloudy
10:14 AM 33.8 °F 27.0 °F 33.8 °F 100% 29.65 in 10.0 mi SW 8.1 mph - N/A   Overcast
10:20 AM 35.6 °F 29.9 °F 33.8 °F 93% 29.65 in 10.0 mi SW 6.9 mph - N/A   Mostly Cloudy
10:57 AM 34.0 °F 28.0 °F 32.0 °F 92% 29.67 in 10.0 mi SW 6.9 mph - N/A   Mostly Cloudy
11:06 AM 35.6 °F 29.9 °F 33.8 °F 93% 29.65 in 10.0 mi SW 6.9 mph - N/A   Mostly Cloudy
11:57 AM 35.6 °F 29.2 °F 33.8 °F 93% 29.65 in 10.0 mi WSW 8.1 mph - N/A   Mostly Cloudy
12:39 PM 35.6 °F 29.2 °F 33.8 °F 93% 29.65 in 10.0 mi SW 8.1 mph - 0.00 in   Overcast
12:57 PM 37.9 °F 32.1 °F 35.1 °F 89% 29.66 in 10.0 mi SW 8.1 mph - 0.00 in   Mostly Cloudy
1:30 PM 35.6 °F 28.0 °F 33.8 °F 93% 29.65 in 10.0 mi West 10.4 mph - N/A   Scattered Clouds
1:57 PM 37.0 °F 30.4 °F 34.0 °F 89% 29.65 in 10.0 mi West 9.2 mph - N/A   Mostly Cloudy
2:05 PM 37.4 °F 30.8 °F 33.8 °F 87% 29.64 in 10.0 mi West 9.2 mph - N/A   Mostly Cloudy
2:20 PM 37.4 °F 31.4 °F 33.8 °F 87% 29.64 in 10.0 mi West 8.1 mph - N/A   Scattered Clouds
2:57 PM 37.4 °F 30.8 °F 32.0 °F 81% 29.63 in 10.0 mi WSW 9.2 mph - N/A   Overcast
2:59 PM 37.9 °F 32.7 °F 32.0 °F 79% 29.64 in 10.0 mi SW 6.9 mph - N/A   Overcast
3:49 PM 37.4 °F 31.4 °F 30.2 °F 75% 29.62 in 10.0 mi WSW 8.1 mph - N/A   Scattered Clouds
3:57 PM 37.9 °F 30.5 °F 30.9 °F 76% 29.63 in 10.0 mi West 11.5 mph - N/A   Mostly Cloudy
4:57 PM 37.0 °F 31.6 °F 30.9 °F 79% 29.62 in 10.0 mi West 6.9 mph - N/A   Overcast
5:19 PM 37.4 °F 33.8 °F 30.2 °F 75% 29.60 in 10.0 mi West 4.6 mph - N/A   Scattered Clouds
5:28 PM 37.4 °F - 30.2 °F 75% 29.60 in 10.0 mi Calm Calm - N/A   Mostly Cloudy
5:57 PM 36.0 °F - 32.0 °F 86% 29.61 in 10.0 mi Calm Calm - 0.00 in Rain Light Rain
6:57 PM 34.0 °F 31.0 °F 33.1 °F 96% 29.60 in 10.0 mi NE 3.5 mph - 0.00 in Rain Light Rain
7:14 PM 33.8 °F - 33.8 °F 100% 29.58 in 10.0 mi Calm Calm - 0.00 in   Scattered Clouds
7:23 PM 33.8 °F - 32.0 °F 93% 29.58 in 10.0 mi Calm Calm - 0.00 in   Mostly Cloudy
7:57 PM 34.0 °F 31.0 °F 33.1 °F 96% 29.58 in 10.0 mi ENE 3.5 mph - 0.00 in   Overcast
8:46 PM 33.8 °F 29.6 °F 32.0 °F 93% 29.56 in 10.0 mi East 4.6 mph - N/A   Scattered Clouds
8:57 PM 33.1 °F 28.7 °F 32.0 °F 96% 29.57 in 10.0 mi East 4.6 mph - N/A   Partly Cloudy
9:57 PM 33.1 °F 27.7 °F 32.0 °F 96% 29.55 in 10.0 mi NE 5.8 mph - N/A   Overcast
10:57 PM 32.0 °F 26.4 °F 30.9 °F 96% 29.53 in 10.0 mi East 5.8 mph - N/A   Clear
11:15 PM 32.0 °F 24.8 °F 30.2 °F 93% 29.51 in 10.0 mi East 8.1 mph - N/A   Mostly Cloudy
11:19 PM 32.0 °F 24.8 °F 30.2 °F 93% 29.51 in 10.0 mi East 8.1 mph - N/A   Scattered Clouds
11:28 PM 32.0 °F 24.2 °F 30.2 °F 93% 29.50 in 10.0 mi East 9.2 mph - N/A   Mostly Cloudy
11:57 PM 33.8 °F 27.0 °F 32.0 °F 93% 29.49 in 10.0 mi ENE 8.1 mph - 0.00 in   Overcast